Home   Weather   Fort Bragg   Past weeks

Flag for USA Past Weather in Fort Bragg, California, USA — Yesterday and Last 2 Weeks

Now
54 °F

Fog.


Feels Like: 54 °F
Forecast: 53 / 56 °F
Wind: No wind

Location: Ukiah Municipal

Current Time: Apr 26, 2017 at 7:19:45 am

Latest Report: Apr 26, 2017 at 6:56 am


Visibility: 5 mi

Pressure: 30.01 "Hg

Humidity: 97%

Dew Point: 53 °F

Location of Fort BraggLocation

Past Weather in Fort Bragg — Graph

°F

Fort Bragg Temperature Yesterday

Maximum temperature yesterday: 63 °F (at 1:56 pm)
Minimum temperature yesterday: 47 °F (at 2:56 am)
Average temperature yesterday: 55 °F

High & Low Weather Summary for the Past Weeks

 TemperatureHumidityPressure
High80 °F (Apr 21, 4:56 pm)100% (Apr 17, 11:56 pm)30.32 "Hg (Apr 17, 11:56 pm)
Low35 °F (Apr 14, 5:56 am)25% (Apr 21, 5:56 pm)29.81 "Hg (Apr 12, 6:56 pm)
Average53 °F78%30.05 "Hg
* Reported Apr 11 6:56 am — Apr 26 6:08 am, Fort Bragg, Weather by CustomWeather, © 2017

Note: Actual official high and low records may vary slightly from our data, if they occured in-between our weather recording intervals... More about our weather records

Advertising

Fort Bragg Weather History for the Previous 24 Hours

Scroll right to see more
 ConditionsComfort  
Time TempWeatherWind HumidityBarometerVisibility
6:08 am
Wed, Apr 26
54 °FMostly cloudy.No wind97%30.02 "Hg10 mi
5:21 am54 °FLight rain. Fog.No wind97%30.03 "Hg4 mi
5:07 am54 °FMostly cloudy.5 mph97%30.04 "Hg10 mi
4:24 am55 °FLight rain. Fog.No wind90%30.03 "Hg6 mi
3:56 am55 °FOvercast.5 mph90%30.02 "Hg10 mi
3:31 am55 °FMostly cloudy.5 mph90%30.03 "Hg10 mi
2:56 am55 °FMostly cloudy.No wind90%30.02 "Hg10 mi
1:56 am56 °FMostly cloudy.No wind87%30.05 "Hg10 mi
12:56 am56 °FMostly cloudy.No wind87%30.08 "Hg10 mi
12:30 am56 °FOvercast.No wind87%30.09 "Hg10 mi
12:20 am56 °FOvercast.No wind87%30.09 "Hg10 mi
11:56 pm
Tue, Apr 25
56 °FOvercast.No wind87%30.09 "Hg10 mi
10:56 pm56 °FMostly cloudy.No wind84%30.09 "Hg10 mi
9:56 pm56 °FOvercast.No wind87%30.09 "Hg10 mi
8:56 pm57 °FMostly cloudy.3 mph81%30.08 "Hg10 mi
8:13 pm57 °FMostly cloudy.3 mph78%30.07 "Hg10 mi
7:56 pm58 °FOvercast.5 mph75%30.07 "Hg10 mi
6:56 pm58 °FOvercast.5 mph75%30.08 "Hg10 mi
5:56 pm60 °FMostly cloudy.7 mph69%30.08 "Hg10 mi
4:56 pm60 °FMostly cloudy.8 mph69%30.07 "Hg10 mi
3:56 pm62 °FOvercast.10 mph62%30.06 "Hg10 mi
2:56 pm62 °FMore clouds than sun.7 mph60%30.07 "Hg10 mi
1:56 pm63 °FMostly cloudy.10 mph56%30.07 "Hg10 mi
12:56 pm62 °FMostly cloudy.12 mph58%30.08 "Hg10 mi
11:56 am59 °FMostly cloudy.No wind62%30.10 "Hg10 mi
10:56 am57 °FOvercast.No wind67%30.09 "Hg10 mi
9:56 am54 °FOvercast.No wind72%30.10 "Hg10 mi
8:56 am52 °FMostly cloudy.No wind77%30.10 "Hg10 mi
7:56 am50 °FOvercast.No wind83%30.09 "Hg10 mi
Weather by CustomWeather, © 2017

See weather overviewHow to use our weather pages